Location: Madden
(51.3728°N, 114.3297°W)
Time: 05:55:49
(UTC+00:00)

PCSat - Pass Details

Date: 10 December 2023
Orbit: 784 x 791 km, 67.0° (Epoch: 02 March)

Event Time Altitude Azimuth Distance (km) Brightness Sun altitude
Exits shadow 11:37:21 22° 31° (NNE) 1,674 11.5 -35.1°
Drops below altitude 10° 11:39:14 10° 35° (NE) 2,362 12.4 -34.8°
Sets 11:41:40 0° 38° (NE) 3,295 13.3 -34.5°
